Tracking 28126 objects as of 2-Oct-2023
HD Live streaming from Space Station
objects crossing your sky now

CAPELLA-10 (WHITNEY)

Track CAPELLA-10 (WHITNEY) now!
10-day predictions


NORAD ID: 55909
Int'l Code: 2023-035B
Perigee: 585.3 km
Apogee: 597.4 km
Inclination: 44.0 °
Period: 96.4 minutes
Semi major axis: 6962 km
RCS: Unknown
Launch date: March 16, 2023
Source: United States (US)
Launch site: WALLOPS ISLAND (WLPIS)
Your satellite tracking list
Your tracking list is empty




NASA's NSSDC Master Catalog

Two Line Element Set (TLE):
1 55909U 23035B   23274.56258707  .00016226  00000-0  14987-2 0  9997
2 55909  44.0028 348.2507 0008695 331.5206  28.5173 14.94406032 29678
Source of the keplerian elements: AFSPC